Find Starlink 31454

NORAD ID: 59014 Int'l Des: 2024-036 Owner: SPXS Country: US Constellation: starlink operational
LEOCIRCULAR

Current View

Loading 3D Globe...

About Starlink 31454

Starlink 31454 (NORAD 59014) is a starlink constellation satellite (v2 mini) launched Feb 23, 2024 by SPXS of US. It operates in LEO, CIRCULAR orbit with a mass of 730.00 kg.

About Starlink 31454

Description loading...

Upcoming Passes

Passes for default location (London). Set your location on the main map for personalized predictions.

Altitude History

Loading altitude history...

Two-Line Element Set

1 59014U 24036S 26171.39357097 -.00000402 00000-0 -14389-5 0 9992
2 59014 53.1616 321.3622 0000998 76.5661 283.5451 15.30189959131046
Epoch: Jun 20, 2026 • Age: 10 hours

Current Status

Altitude 476.8 km
Velocity 7.63 km/s
Sub-Earth Point -3.30°S, 61.95°W
Launch Date Feb 23, 2024
Age 2.3 years
Type internet

Technical Details

Classification Payload
Mass 730.00 kg
Dry Mass 700.00 kg
Total Mass 730.00 kg
Length 0.30 m
Diameter 4.10 m
Span 29.00 m
Shape Box + pan
Manufacturer SPXS
Bus Type Starlink V2M
Phase Status In Orbit
Owner/State SPXS/US

Most Searched